Year,Month,Day,Hour,Minute,Value (Times are PST for temperature in C)
2009,08,25,00,00,15.50
2009,08,25,00,01,15.50
2009,08,25,00,02,15.50
2009,08,25,00,03,15.50
2009,08,25,00,04,15.50
2009,08,25,00,05,15.50
2009,08,25,00,06,15.50
2009,08,25,00,07,15.50
2009,08,25,00,08,15.40
2009,08,25,00,09,15.40
2009,08,25,00,10,15.30
2009,08,25,00,11,15.30
2009,08,25,00,12,15.30
2009,08,25,00,13,15.30
2009,08,25,00,14,15.30
2009,08,25,00,15,15.30
2009,08,25,00,16,15.20
2009,08,25,00,17,15.20
2009,08,25,00,18,15.20
2009,08,25,00,19,15.20
2009,08,25,00,20,15.20
2009,08,25,00,21,15.20
2009,08,25,00,22,15.20
2009,08,25,00,23,15.20
2009,08,25,00,24,15.20
2009,08,25,00,25,15.20
2009,08,25,00,26,15.20
2009,08,25,00,27,15.20
2009,08,25,00,28,15.20
2009,08,25,00,29,15.20
2009,08,25,00,30,15.20
2009,08,25,00,31,15.20
2009,08,25,00,32,15.10
2009,08,25,00,33,15.10
2009,08,25,00,34,15.10
2009,08,25,00,35,15.10
2009,08,25,00,36,15.10
2009,08,25,00,37,15.10
2009,08,25,00,38,15.10
2009,08,25,00,39,15.10
2009,08,25,00,40,15.10
2009,08,25,00,41,15.10
2009,08,25,00,42,15.10
2009,08,25,00,43,15.10
2009,08,25,00,44,15.10
2009,08,25,00,45,15.10
2009,08,25,00,46,15.10
2009,08,25,00,47,15.10
2009,08,25,00,48,15.10
2009,08,25,00,49,15.10
2009,08,25,00,50,15.00
2009,08,25,00,51,15.00
2009,08,25,00,52,15.00
2009,08,25,00,53,15.00
2009,08,25,00,54,15.00
2009,08,25,00,55,15.00
2009,08,25,00,56,14.90
2009,08,25,00,57,14.90
2009,08,25,00,58,14.90
2009,08,25,00,59,14.90
2009,08,25,01,00,14.90
2009,08,25,01,01,14.90
2009,08,25,01,02,14.90
2009,08,25,01,03,14.80
2009,08,25,01,04,14.90
2009,08,25,01,05,14.90
2009,08,25,01,06,14.90
2009,08,25,01,07,14.90
2009,08,25,01,08,14.90
2009,08,25,01,09,14.90
2009,08,25,01,10,14.90
2009,08,25,01,11,14.90
2009,08,25,01,12,14.90
2009,08,25,01,13,14.90
2009,08,25,01,14,14.90
2009,08,25,01,15,14.90
2009,08,25,01,16,14.90
2009,08,25,01,17,14.90
2009,08,25,01,18,14.90
2009,08,25,01,19,14.90
2009,08,25,01,20,14.90
2009,08,25,01,21,14.90
2009,08,25,01,22,14.90
2009,08,25,01,23,14.90
2009,08,25,01,24,14.90
2009,08,25,01,25,14.90
2009,08,25,01,26,14.90
2009,08,25,01,27,14.90
2009,08,25,01,28,14.90
2009,08,25,01,29,14.90
2009,08,25,01,30,14.90
2009,08,25,01,31,14.90
2009,08,25,01,32,14.90
2009,08,25,01,33,14.90
2009,08,25,01,34,14.90
2009,08,25,01,35,14.90
2009,08,25,01,36,14.90
2009,08,25,01,37,14.90
2009,08,25,01,38,14.90
2009,08,25,01,39,14.90
2009,08,25,01,40,15.00
2009,08,25,01,41,15.00
2009,08,25,01,42,15.00
2009,08,25,01,43,15.00
2009,08,25,01,44,15.00
2009,08,25,01,45,15.00
2009,08,25,01,46,15.00
2009,08,25,01,47,15.00
2009,08,25,01,48,15.00
2009,08,25,01,49,15.00
2009,08,25,01,50,15.00
2009,08,25,01,51,15.00
2009,08,25,01,52,15.00
2009,08,25,01,53,15.00
2009,08,25,01,54,15.00
2009,08,25,01,55,14.90
2009,08,25,01,56,14.90
2009,08,25,01,57,14.90
2009,08,25,01,58,14.90
2009,08,25,01,59,14.90
2009,08,25,02,00,15.00
2009,08,25,02,01,15.00
2009,08,25,02,02,15.00
2009,08,25,02,03,15.00
2009,08,25,02,04,15.10
2009,08,25,02,05,15.10
2009,08,25,02,06,15.10
2009,08,25,02,07,15.10
2009,08,25,02,08,15.10
2009,08,25,02,09,15.10
2009,08,25,02,10,15.10
2009,08,25,02,11,15.10
2009,08,25,02,12,15.10
2009,08,25,02,13,15.10
2009,08,25,02,14,15.10
2009,08,25,02,15,15.10
2009,08,25,02,16,15.10
2009,08,25,02,17,15.10
2009,08,25,02,18,15.10
2009,08,25,02,19,15.10
2009,08,25,02,20,15.10
2009,08,25,02,21,15.00
2009,08,25,02,22,15.00
2009,08,25,02,23,15.00
2009,08,25,02,24,15.00
2009,08,25,02,25,15.00
2009,08,25,02,26,14.90
2009,08,25,02,27,14.90
2009,08,25,02,28,14.90
2009,08,25,02,29,14.90
2009,08,25,02,30,14.90
2009,08,25,02,31,14.90
2009,08,25,02,32,14.90
2009,08,25,02,33,14.90
2009,08,25,02,34,14.90
2009,08,25,02,35,14.90
2009,08,25,02,36,14.90
2009,08,25,02,37,14.90
2009,08,25,02,38,14.90
2009,08,25,02,39,14.80
2009,08,25,02,40,14.80
2009,08,25,02,41,14.80
2009,08,25,02,42,14.80
2009,08,25,02,43,14.80
2009,08,25,02,44,14.80
2009,08,25,02,45,14.80
2009,08,25,02,46,14.80
2009,08,25,02,47,14.80
2009,08,25,02,48,14.80
2009,08,25,02,49,14.80
2009,08,25,02,50,14.80
2009,08,25,02,51,14.80
2009,08,25,02,52,14.80
2009,08,25,02,53,14.80
2009,08,25,02,54,14.80
2009,08,25,02,55,14.80
2009,08,25,02,56,14.80
2009,08,25,02,57,14.80
2009,08,25,02,58,14.80
2009,08,25,02,59,14.80
2009,08,25,03,00,14.80
2009,08,25,03,01,14.80
2009,08,25,03,02,14.80
2009,08,25,03,03,14.70
2009,08,25,03,04,14.70
2009,08,25,03,05,14.70
2009,08,25,03,06,14.60
2009,08,25,03,07,14.60
2009,08,25,03,08,14.60
2009,08,25,03,09,14.60
2009,08,25,03,10,14.60
2009,08,25,03,11,14.50
2009,08,25,03,12,14.50
2009,08,25,03,13,14.50
2009,08,25,03,14,14.50
2009,08,25,03,15,14.40
2009,08,25,03,16,14.40
2009,08,25,03,17,14.40
2009,08,25,03,18,14.40
2009,08,25,03,19,14.40
2009,08,25,03,20,14.40
2009,08,25,03,21,14.40
2009,08,25,03,22,14.40
2009,08,25,03,23,14.40
2009,08,25,03,24,14.40
2009,08,25,03,25,14.40
2009,08,25,03,26,14.40
2009,08,25,03,27,14.30
2009,08,25,03,28,14.30
2009,08,25,03,29,14.30
2009,08,25,03,30,14.40
2009,08,25,03,31,14.40
2009,08,25,03,32,14.40
2009,08,25,03,33,14.40
2009,08,25,03,34,14.40
2009,08,25,03,35,14.40
2009,08,25,03,36,14.30
2009,08,25,03,37,14.30
2009,08,25,03,38,14.30
2009,08,25,03,39,14.30
2009,08,25,03,40,14.30
2009,08,25,03,41,14.30
2009,08,25,03,42,14.30
2009,08,25,03,43,14.20
2009,08,25,03,44,14.20
2009,08,25,03,45,14.20
2009,08,25,03,46,14.20
2009,08,25,03,47,14.20
2009,08,25,03,48,14.20
2009,08,25,03,49,14.20
2009,08,25,03,50,14.20
2009,08,25,03,51,14.20
2009,08,25,03,52,14.20
2009,08,25,03,53,14.20
2009,08,25,03,54,14.20
2009,08,25,03,55,14.20
2009,08,25,03,56,14.20
2009,08,25,03,57,14.20
2009,08,25,03,58,14.20
2009,08,25,03,59,14.20
2009,08,25,04,00,14.20
2009,08,25,04,01,14.20
2009,08,25,04,02,14.20
2009,08,25,04,03,14.20
2009,08,25,04,04,14.10
2009,08,25,04,05,14.10
2009,08,25,04,06,14.10
2009,08,25,04,07,14.00
2009,08,25,04,08,14.00
2009,08,25,04,09,14.00
2009,08,25,04,10,13.90
2009,08,25,04,11,13.90
2009,08,25,04,12,13.90
2009,08,25,04,13,13.80
2009,08,25,04,14,13.70
2009,08,25,04,15,13.70
2009,08,25,04,16,13.60
2009,08,25,04,17,13.60
2009,08,25,04,18,13.50
2009,08,25,04,19,13.50
2009,08,25,04,20,13.40
2009,08,25,04,21,13.40
2009,08,25,04,22,13.30
2009,08,25,04,23,13.30
2009,08,25,04,24,13.30
2009,08,25,04,25,13.30
2009,08,25,04,26,13.30
2009,08,25,04,27,13.30
2009,08,25,04,28,13.30
2009,08,25,04,29,13.30
2009,08,25,04,30,13.30
2009,08,25,04,31,13.30
2009,08,25,04,32,13.30
2009,08,25,04,33,13.30
2009,08,25,04,34,13.30
2009,08,25,04,35,13.30
2009,08,25,04,36,13.30
2009,08,25,04,37,13.30
2009,08,25,04,38,13.30
2009,08,25,04,39,13.30
2009,08,25,04,40,13.30
2009,08,25,04,41,13.30
2009,08,25,04,42,13.30
2009,08,25,04,43,13.30
2009,08,25,04,44,13.30
2009,08,25,04,45,13.30
2009,08,25,04,46,13.30
2009,08,25,04,47,13.30
2009,08,25,04,48,13.30
2009,08,25,04,49,13.30
2009,08,25,04,50,13.30
2009,08,25,04,51,13.40
2009,08,25,04,52,13.40
2009,08,25,04,53,13.40
2009,08,25,04,54,13.40
2009,08,25,04,55,13.40
2009,08,25,04,56,13.40
2009,08,25,04,57,13.40
2009,08,25,04,58,13.40
2009,08,25,04,59,13.40
2009,08,25,05,00,13.40
2009,08,25,05,01,13.40
2009,08,25,05,02,13.30
2009,08,25,05,03,13.30
2009,08,25,05,04,13.30
2009,08,25,05,05,13.30
2009,08,25,05,06,13.30
2009,08,25,05,07,13.30
2009,08,25,05,08,13.30
2009,08,25,05,09,13.30
2009,08,25,05,10,13.30
2009,08,25,05,11,13.30
2009,08,25,05,12,13.30
2009,08,25,05,13,13.30
2009,08,25,05,14,13.30
2009,08,25,05,15,13.30
2009,08,25,05,16,13.20
2009,08,25,05,17,13.20
2009,08,25,05,18,13.20
2009,08,25,05,19,13.20
2009,08,25,05,20,13.20
2009,08,25,05,21,13.20
2009,08,25,05,22,13.20
2009,08,25,05,23,13.10
2009,08,25,05,24,13.10
2009,08,25,05,25,13.10
2009,08,25,05,26,13.00
2009,08,25,05,27,13.00
2009,08,25,05,28,12.90
2009,08,25,05,29,12.90
2009,08,25,05,30,12.90
2009,08,25,05,31,12.80
2009,08,25,05,32,12.80
2009,08,25,05,33,12.80
2009,08,25,05,34,12.80
2009,08,25,05,35,12.80
2009,08,25,05,36,12.70
2009,08,25,05,37,12.70
2009,08,25,05,38,12.70
2009,08,25,05,39,12.60
2009,08,25,05,40,12.60
2009,08,25,05,41,12.60
2009,08,25,05,42,12.60
2009,08,25,05,43,12.50
2009,08,25,05,44,12.50
2009,08,25,05,45,12.50
2009,08,25,05,46,12.40
2009,08,25,05,47,12.40
2009,08,25,05,48,12.40
2009,08,25,05,49,12.30
2009,08,25,05,50,12.30
2009,08,25,05,51,12.30
2009,08,25,05,52,12.30
2009,08,25,05,53,12.30
2009,08,25,05,54,12.30
2009,08,25,05,55,12.30
2009,08,25,05,56,12.30
2009,08,25,05,57,12.30
2009,08,25,05,58,12.20
2009,08,25,05,59,12.20
2009,08,25,06,00,12.20
2009,08,25,06,01,12.10
2009,08,25,06,02,12.10
2009,08,25,06,03,12.00
2009,08,25,06,04,12.00
2009,08,25,06,05,12.00
2009,08,25,06,06,12.00
2009,08,25,06,07,11.90
2009,08,25,06,08,11.90
2009,08,25,06,09,11.90
2009,08,25,06,10,11.90
2009,08,25,06,11,11.80
2009,08,25,06,12,11.80
2009,08,25,06,13,11.80
2009,08,25,06,14,11.80
2009,08,25,06,15,11.80
2009,08,25,06,16,11.80
2009,08,25,06,17,11.80
2009,08,25,06,18,11.80
2009,08,25,06,19,11.80
2009,08,25,06,20,11.80
2009,08,25,06,21,11.80
2009,08,25,06,22,11.80
2009,08,25,06,23,11.80
2009,08,25,06,24,11.80
2009,08,25,06,25,11.80
2009,08,25,06,26,11.80
2009,08,25,06,27,11.80
2009,08,25,06,28,11.80
2009,08,25,06,29,11.80
2009,08,25,06,30,11.80
2009,08,25,06,31,11.80
2009,08,25,06,32,11.80
2009,08,25,06,33,11.80
2009,08,25,06,34,11.80
2009,08,25,06,35,11.80
2009,08,25,06,36,11.80
2009,08,25,06,37,11.80
2009,08,25,06,38,11.80
2009,08,25,06,39,11.80
2009,08,25,06,40,11.80
2009,08,25,06,41,11.80
2009,08,25,06,42,11.80
2009,08,25,06,43,11.80
2009,08,25,06,44,11.80
2009,08,25,06,45,11.80
2009,08,25,06,46,11.80
2009,08,25,06,47,11.80
2009,08,25,06,48,11.80
2009,08,25,06,49,11.80
2009,08,25,06,50,11.80
2009,08,25,06,51,11.90
2009,08,25,06,52,11.90
2009,08,25,06,53,11.90
2009,08,25,06,54,11.90
2009,08,25,06,55,12.00
2009,08,25,06,56,12.00
2009,08,25,06,57,12.00
2009,08,25,06,58,12.00
2009,08,25,06,59,12.00
2009,08,25,07,00,12.00
2009,08,25,07,01,12.00
2009,08,25,07,02,12.10
2009,08,25,07,03,12.10
2009,08,25,07,04,12.10
2009,08,25,07,05,12.10
2009,08,25,07,06,12.10
2009,08,25,07,07,12.10
2009,08,25,07,08,12.20
2009,08,25,07,09,12.20
2009,08,25,07,10,12.20
2009,08,25,07,11,12.20
2009,08,25,07,12,12.20
2009,08,25,07,13,12.30
2009,08,25,07,14,12.30
2009,08,25,07,15,12.30
2009,08,25,07,16,12.30
2009,08,25,07,17,12.30
2009,08,25,07,18,12.30
2009,08,25,07,19,12.30
2009,08,25,07,20,12.40
2009,08,25,07,21,12.40
2009,08,25,07,22,12.40
2009,08,25,07,23,12.40
2009,08,25,07,24,12.50
2009,08,25,07,25,12.50
2009,08,25,07,26,12.50
2009,08,25,07,27,12.50
2009,08,25,07,28,12.60
2009,08,25,07,29,12.60
2009,08,25,07,30,12.60
2009,08,25,07,31,12.70
2009,08,25,07,32,12.70
2009,08,25,07,33,12.70
2009,08,25,07,34,12.70
2009,08,25,07,35,12.70
2009,08,25,07,36,12.70
2009,08,25,07,37,12.70
2009,08,25,07,38,12.70
2009,08,25,07,39,12.70
2009,08,25,07,40,12.60
2009,08,25,07,41,12.60
2009,08,25,07,42,12.60
2009,08,25,07,43,12.60
2009,08,25,07,44,12.70
2009,08,25,07,45,12.70
2009,08,25,07,46,12.70
2009,08,25,07,47,12.80
2009,08,25,07,48,12.80
2009,08,25,07,49,12.80
2009,08,25,07,50,12.80
2009,08,25,07,51,12.80
2009,08,25,07,52,12.80
2009,08,25,07,53,12.80
2009,08,25,07,54,12.90
2009,08,25,07,55,13.00
2009,08,25,07,56,13.00
2009,08,25,07,57,13.10
2009,08,25,07,58,13.20
2009,08,25,07,59,13.30
2009,08,25,08,00,13.30
2009,08,25,08,01,13.40
2009,08,25,08,02,13.50
2009,08,25,08,03,13.60
2009,08,25,08,04,13.60
2009,08,25,08,05,13.70
2009,08,25,08,06,13.80
2009,08,25,08,07,13.90
2009,08,25,08,08,14.00
2009,08,25,08,09,14.00
2009,08,25,08,10,14.00
2009,08,25,08,11,14.10
2009,08,25,08,12,14.10
2009,08,25,08,13,14.10
2009,08,25,08,14,14.10
2009,08,25,08,15,14.00
2009,08,25,08,16,14.00
2009,08,25,08,17,14.00
2009,08,25,08,18,14.00
2009,08,25,08,19,14.00
2009,08,25,08,20,14.00
2009,08,25,08,21,14.00
2009,08,25,08,22,14.00
2009,08,25,08,23,13.90
2009,08,25,08,24,13.90
2009,08,25,08,25,13.90
2009,08,25,08,26,13.90
2009,08,25,08,27,13.90
2009,08,25,08,28,13.90
2009,08,25,08,29,13.90
2009,08,25,08,30,13.90
2009,08,25,08,31,13.90
2009,08,25,08,32,14.00
2009,08,25,08,33,14.00
2009,08,25,08,34,14.00
2009,08,25,08,35,14.00
2009,08,25,08,36,14.00
2009,08,25,08,37,14.00
2009,08,25,08,38,13.90
2009,08,25,08,39,13.90
2009,08,25,08,40,13.90
2009,08,25,08,41,13.90
2009,08,25,08,42,13.90
2009,08,25,08,43,14.00
2009,08,25,08,44,14.00
2009,08,25,08,45,14.00
2009,08,25,08,46,14.00
2009,08,25,08,47,14.10
2009,08,25,08,48,14.20
2009,08,25,08,49,14.20
2009,08,25,08,50,14.20
2009,08,25,08,51,14.20
2009,08,25,08,52,14.20
2009,08,25,08,53,14.20
2009,08,25,08,54,14.20
2009,08,25,08,55,14.20
2009,08,25,08,56,14.10
2009,08,25,08,57,14.10
2009,08,25,08,58,14.10
2009,08,25,08,59,14.10
2009,08,25,09,00,14.10
2009,08,25,09,01,14.20
2009,08,25,09,02,14.20
2009,08,25,09,03,14.20
2009,08,25,09,04,14.30
2009,08,25,09,05,14.40
2009,08,25,09,06,14.40
2009,08,25,09,07,14.40
2009,08,25,09,08,14.50
2009,08,25,09,09,14.50
2009,08,25,09,10,14.60
2009,08,25,09,11,14.70
2009,08,25,09,12,14.80
2009,08,25,09,13,14.80
2009,08,25,09,14,14.80
2009,08,25,09,15,14.90
2009,08,25,09,16,15.00
2009,08,25,09,17,15.10
2009,08,25,09,18,15.20
2009,08,25,09,19,15.20
2009,08,25,09,20,15.30
2009,08,25,09,21,15.20
2009,08,25,09,22,15.20
2009,08,25,09,23,15.10
2009,08,25,09,24,15.10
2009,08,25,09,25,15.20
2009,08,25,09,26,15.20
2009,08,25,09,27,15.20
2009,08,25,09,28,15.20
2009,08,25,09,29,15.20
2009,08,25,09,30,15.20
2009,08,25,09,31,15.20
2009,08,25,09,32,15.10
2009,08,25,09,33,15.10
2009,08,25,09,34,15.00
2009,08,25,09,35,15.00
2009,08,25,09,36,15.00
2009,08,25,09,37,15.10
2009,08,25,09,38,15.10
2009,08,25,09,39,15.20
2009,08,25,09,40,15.20
2009,08,25,09,41,15.20
2009,08,25,09,42,15.20
2009,08,25,09,43,15.30
2009,08,25,09,44,15.30
2009,08,25,09,45,15.20
2009,08,25,09,46,15.10
2009,08,25,09,47,15.10
2009,08,25,09,48,15.10
2009,08,25,09,49,15.20
2009,08,25,09,50,15.30
2009,08,25,09,51,15.30
2009,08,25,09,52,15.30
2009,08,25,09,53,15.40
2009,08,25,09,54,15.40
2009,08,25,09,55,15.40
2009,08,25,09,56,15.50
2009,08,25,09,57,15.70
2009,08,25,09,58,15.70
2009,08,25,09,59,15.80
2009,08,25,10,00,15.80
2009,08,25,10,01,15.80
2009,08,25,10,02,15.80
2009,08,25,10,03,15.80
2009,08,25,10,04,15.80
2009,08,25,10,05,15.80
2009,08,25,10,06,15.80
2009,08,25,10,07,15.80
2009,08,25,10,08,15.90
2009,08,25,10,09,16.00
2009,08,25,10,10,16.10
2009,08,25,10,11,16.10
2009,08,25,10,12,16.10
2009,08,25,10,13,16.20
2009,08,25,10,14,16.20
2009,08,25,10,15,16.20
2009,08,25,10,16,16.30
2009,08,25,10,17,16.30
2009,08,25,10,18,16.30
2009,08,25,10,19,16.30
2009,08,25,10,20,16.30
2009,08,25,10,21,16.30
2009,08,25,10,22,16.30
2009,08,25,10,23,16.40
2009,08,25,10,24,16.40
2009,08,25,10,25,16.40
2009,08,25,10,26,16.40
2009,08,25,10,27,16.40
2009,08,25,10,28,16.40
2009,08,25,10,29,16.30
2009,08,25,10,30,16.30
2009,08,25,10,31,16.30
2009,08,25,10,32,16.30
2009,08,25,10,33,16.40
2009,08,25,10,34,16.40
2009,08,25,10,35,16.50
2009,08,25,10,36,16.70
2009,08,25,10,37,16.70
2009,08,25,10,38,16.80
2009,08,25,10,39,17.00
2009,08,25,10,40,17.00
2009,08,25,10,41,17.10
2009,08,25,10,42,17.20
2009,08,25,10,43,17.20
2009,08,25,10,44,17.20
2009,08,25,10,45,17.10
2009,08,25,10,46,17.10
2009,08,25,10,47,17.00
2009,08,25,10,48,17.00
2009,08,25,10,49,17.10
2009,08,25,10,50,17.20
2009,08,25,10,51,17.10
2009,08,25,10,52,17.00
2009,08,25,10,53,17.00
2009,08,25,10,54,17.10
2009,08,25,10,55,17.10
2009,08,25,10,56,17.20
2009,08,25,10,57,17.20
2009,08,25,10,58,17.30
2009,08,25,10,59,17.50
2009,08,25,11,00,17.50
2009,08,25,11,01,17.50
2009,08,25,11,02,17.40
2009,08,25,11,03,17.40
2009,08,25,11,04,17.30
2009,08,25,11,05,17.30
2009,08,25,11,06,17.30
2009,08,25,11,07,17.50
2009,08,25,11,08,17.70
2009,08,25,11,09,17.70
2009,08,25,11,10,17.70
2009,08,25,11,11,17.60
2009,08,25,11,12,17.60
2009,08,25,11,13,17.60
2009,08,25,11,14,17.60
2009,08,25,11,15,17.60
2009,08,25,11,16,17.70
2009,08,25,11,17,17.70
2009,08,25,11,18,17.70
2009,08,25,11,19,17.80
2009,08,25,11,20,17.90
2009,08,25,11,21,17.90
2009,08,25,11,22,17.90
2009,08,25,11,23,17.90
2009,08,25,11,24,17.90
2009,08,25,11,25,17.70
2009,08,25,11,26,17.70
2009,08,25,11,27,17.70
2009,08,25,11,28,17.70
2009,08,25,11,29,17.70
2009,08,25,11,30,17.60
2009,08,25,11,31,17.60
2009,08,25,11,32,17.50
2009,08,25,11,33,17.50
2009,08,25,11,34,17.60
2009,08,25,11,35,17.60
2009,08,25,11,36,17.60
2009,08,25,11,37,17.80
2009,08,25,11,38,17.90
2009,08,25,11,39,17.90
2009,08,25,11,40,18.00
2009,08,25,11,41,18.10
2009,08,25,11,42,18.20
2009,08,25,11,43,18.30
2009,08,25,11,44,18.30
2009,08,25,11,45,18.30
2009,08,25,11,46,18.30
2009,08,25,11,47,18.30
2009,08,25,11,48,18.20
2009,08,25,11,49,18.30
2009,08,25,11,50,18.30
2009,08,25,11,51,18.30
2009,08,25,11,52,18.20
2009,08,25,11,53,18.20
2009,08,25,11,54,18.20
2009,08,25,11,55,18.00
2009,08,25,11,56,17.90
2009,08,25,11,57,18.00
2009,08,25,11,58,18.10
2009,08,25,11,59,18.20
2009,08,25,12,00,18.10
2009,08,25,12,01,18.10
2009,08,25,12,02,18.30
2009,08,25,12,03,18.30
2009,08,25,12,04,18.50
2009,08,25,12,05,18.60
2009,08,25,12,06,18.70
2009,08,25,12,07,18.70
2009,08,25,12,08,18.70
2009,08,25,12,09,18.70
2009,08,25,12,10,18.80
2009,08,25,12,11,18.80
2009,08,25,12,12,18.90
2009,08,25,12,13,18.90
2009,08,25,12,14,18.90
2009,08,25,12,15,18.90
2009,08,25,12,16,19.00
2009,08,25,12,17,19.20
2009,08,25,12,18,19.50
2009,08,25,12,19,19.60
2009,08,25,12,20,19.80
2009,08,25,12,21,19.90
2009,08,25,12,22,19.90
2009,08,25,12,23,19.70
2009,08,25,12,24,19.60
2009,08,25,12,25,19.40
2009,08,25,12,26,19.30
2009,08,25,12,27,19.20
2009,08,25,12,28,19.20
2009,08,25,12,29,19.20
2009,08,25,12,30,19.30
2009,08,25,12,31,19.40
2009,08,25,12,32,19.50
2009,08,25,12,33,19.50
2009,08,25,12,34,19.60
2009,08,25,12,35,19.60
2009,08,25,12,36,19.60
2009,08,25,12,37,19.80
2009,08,25,12,38,19.90
2009,08,25,12,39,19.70
2009,08,25,12,40,19.70
2009,08,25,12,41,19.80
2009,08,25,12,42,20.00
2009,08,25,12,43,20.20
2009,08,25,12,44,20.30
2009,08,25,12,45,20.40
2009,08,25,12,46,20.40
2009,08,25,12,47,20.30
2009,08,25,12,48,20.30
2009,08,25,12,49,20.20
2009,08,25,12,50,20.10
2009,08,25,12,51,20.00
2009,08,25,12,52,20.20
2009,08,25,12,53,20.30
2009,08,25,12,54,20.30
2009,08,25,12,55,20.40
2009,08,25,12,56,20.50
2009,08,25,12,57,20.60
2009,08,25,12,58,20.60
2009,08,25,12,59,20.60
2009,08,25,13,00,20.50
2009,08,25,13,01,20.50
2009,08,25,13,02,20.50
2009,08,25,13,03,20.40
2009,08,25,13,04,20.40
2009,08,25,13,05,20.50
2009,08,25,13,06,20.50
2009,08,25,13,07,20.60
2009,08,25,13,08,20.80
2009,08,25,13,09,20.80
2009,08,25,13,10,20.90
2009,08,25,13,11,20.90
2009,08,25,13,12,20.90
2009,08,25,13,13,20.80
2009,08,25,13,14,20.80
2009,08,25,13,15,20.80
2009,08,25,13,16,20.70
2009,08,25,13,17,20.80
2009,08,25,13,18,20.80
2009,08,25,13,19,20.80
2009,08,25,13,20,20.80
2009,08,25,13,21,20.80
2009,08,25,13,22,20.80
2009,08,25,13,23,20.80
2009,08,25,13,24,20.80
2009,08,25,13,25,21.00
2009,08,25,13,26,21.10
2009,08,25,13,27,21.30
2009,08,25,13,28,21.20
2009,08,25,13,29,21.10
2009,08,25,13,30,21.00
2009,08,25,13,31,21.00
2009,08,25,13,32,21.20
2009,08,25,13,33,21.30
2009,08,25,13,34,21.40
2009,08,25,13,35,21.40
2009,08,25,13,36,21.40
2009,08,25,13,37,21.30
2009,08,25,13,38,21.20
2009,08,25,13,39,21.10
2009,08,25,13,40,20.90
2009,08,25,13,41,20.80
2009,08,25,13,42,20.80
2009,08,25,13,43,20.70
2009,08,25,13,44,20.60
2009,08,25,13,45,20.40
2009,08,25,13,46,20.20
2009,08,25,13,47,20.00
2009,08,25,13,48,20.00
2009,08,25,13,49,20.10
2009,08,25,13,50,19.90
2009,08,25,13,51,19.80
2009,08,25,13,52,19.40
2009,08,25,13,53,19.00
2009,08,25,13,54,18.90
2009,08,25,13,55,18.70
2009,08,25,13,56,18.50
2009,08,25,13,57,18.30
2009,08,25,13,58,18.20
2009,08,25,13,59,18.20
2009,08,25,14,00,18.20
2009,08,25,14,01,18.30
2009,08,25,14,02,18.40
2009,08,25,14,03,18.50
2009,08,25,14,04,18.60
2009,08,25,14,05,18.60
2009,08,25,14,06,18.40
2009,08,25,14,07,18.60
2009,08,25,14,08,18.70
2009,08,25,14,09,18.90
2009,08,25,14,10,18.80
2009,08,25,14,11,18.70
2009,08,25,14,12,18.60
2009,08,25,14,13,18.60
2009,08,25,14,14,18.60
2009,08,25,14,15,18.70
2009,08,25,14,16,18.60
2009,08,25,14,17,18.60
2009,08,25,14,18,18.80
2009,08,25,14,19,18.70
2009,08,25,14,20,18.80
2009,08,25,14,21,18.90
2009,08,25,14,22,19.00
2009,08,25,14,23,18.90
2009,08,25,14,24,18.90
2009,08,25,14,25,18.80
2009,08,25,14,26,18.80
2009,08,25,14,27,18.90
2009,08,25,14,28,18.90
2009,08,25,14,29,18.80
2009,08,25,14,30,18.60
2009,08,25,14,31,18.50
2009,08,25,14,32,18.40
2009,08,25,14,33,18.20
2009,08,25,14,34,18.20
2009,08,25,14,35,18.20
2009,08,25,14,36,18.20
2009,08,25,14,37,18.10
2009,08,25,14,38,18.10
2009,08,25,14,39,18.10
2009,08,25,14,40,18.10
2009,08,25,14,41,18.00
2009,08,25,14,42,17.90
2009,08,25,14,43,17.90
2009,08,25,14,44,18.00
2009,08,25,14,45,18.10
2009,08,25,14,46,18.10
2009,08,25,14,47,18.20
2009,08,25,14,48,18.10
2009,08,25,14,49,18.10
2009,08,25,14,50,18.10
2009,08,25,14,51,18.10
2009,08,25,14,52,18.10
2009,08,25,14,53,18.10
2009,08,25,14,54,18.00
2009,08,25,14,55,18.00
2009,08,25,14,56,18.10
2009,08,25,14,57,18.10
2009,08,25,14,58,17.90
2009,08,25,14,59,17.90
2009,08,25,15,00,18.00
2009,08,25,15,01,18.10
2009,08,25,15,02,18.10
2009,08,25,15,03,18.20
2009,08,25,15,04,18.30
2009,08,25,15,05,18.30
2009,08,25,15,06,18.30
2009,08,25,15,07,18.20
2009,08,25,15,08,18.30
2009,08,25,15,09,18.30
2009,08,25,15,10,18.40
2009,08,25,15,11,18.40
2009,08,25,15,12,18.30
2009,08,25,15,13,18.20
2009,08,25,15,14,18.20
2009,08,25,15,15,18.20
2009,08,25,15,16,18.20
2009,08,25,15,17,18.20
2009,08,25,15,18,18.20
2009,08,25,15,19,18.30
2009,08,25,15,20,18.40
2009,08,25,15,21,18.60
2009,08,25,15,22,18.70
2009,08,25,15,23,18.80
2009,08,25,15,24,18.80
2009,08,25,15,25,18.80
2009,08,25,15,26,18.90
2009,08,25,15,27,19.00
2009,08,25,15,28,19.10
2009,08,25,15,29,19.10
2009,08,25,15,30,19.10
2009,08,25,15,31,19.10
2009,08,25,15,32,19.10
2009,08,25,15,33,19.20
2009,08,25,15,34,19.10
2009,08,25,15,35,19.20
2009,08,25,15,36,19.20
2009,08,25,15,37,19.20
2009,08,25,15,38,19.10
2009,08,25,15,39,19.00
2009,08,25,15,40,19.00
2009,08,25,15,41,18.90
2009,08,25,15,42,18.60
2009,08,25,15,43,18.50
2009,08,25,15,44,18.30
2009,08,25,15,45,18.20
2009,08,25,15,46,18.00
2009,08,25,15,47,18.00
2009,08,25,15,48,18.10
2009,08,25,15,49,18.20
2009,08,25,15,50,18.40
2009,08,25,15,51,18.50
2009,08,25,15,52,18.70
2009,08,25,15,53,18.90
2009,08,25,15,54,19.00
2009,08,25,15,55,19.00
2009,08,25,15,56,19.10
2009,08,25,15,57,19.10
2009,08,25,15,58,19.30
2009,08,25,15,59,19.30
2009,08,25,16,00,19.30
2009,08,25,16,01,19.30
2009,08,25,16,02,19.40
2009,08,25,16,03,19.30
2009,08,25,16,04,19.30
2009,08,25,16,05,19.30
2009,08,25,16,06,19.30
2009,08,25,16,07,19.20
2009,08,25,16,08,19.10
2009,08,25,16,09,19.10
2009,08,25,16,10,19.20
2009,08,25,16,11,19.10
2009,08,25,16,12,19.10
2009,08,25,16,13,19.10
2009,08,25,16,14,19.10
2009,08,25,16,15,19.10
2009,08,25,16,16,19.10
2009,08,25,16,17,19.20
2009,08,25,16,18,19.20
2009,08,25,16,19,19.30
2009,08,25,16,20,19.10
2009,08,25,16,21,19.10
2009,08,25,16,22,19.10
2009,08,25,16,23,19.10
2009,08,25,16,24,19.10
2009,08,25,16,25,19.10
2009,08,25,16,26,19.10
2009,08,25,16,27,18.90
2009,08,25,16,28,18.70
2009,08,25,16,29,18.50
2009,08,25,16,30,18.40
2009,08,25,16,31,18.50
2009,08,25,16,32,18.40
2009,08,25,16,33,18.40
2009,08,25,16,34,18.20
2009,08,25,16,35,18.00
2009,08,25,16,36,17.90
2009,08,25,16,37,17.90
2009,08,25,16,38,17.90
2009,08,25,16,39,17.80
2009,08,25,16,40,17.90
2009,08,25,16,41,17.90
2009,08,25,16,42,17.80
2009,08,25,16,43,17.70
2009,08,25,16,44,17.70
2009,08,25,16,45,17.80
2009,08,25,16,46,17.90
2009,08,25,16,47,17.90
2009,08,25,16,48,18.10
2009,08,25,16,49,18.10
2009,08,25,16,50,18.10
2009,08,25,16,51,18.20
2009,08,25,16,52,18.20
2009,08,25,16,53,18.20
2009,08,25,16,54,18.20
2009,08,25,16,55,18.20
2009,08,25,16,56,18.20
2009,08,25,16,57,18.10
2009,08,25,16,58,18.10
2009,08,25,16,59,18.10
2009,08,25,17,00,18.10
2009,08,25,17,01,17.90
2009,08,25,17,02,17.80
2009,08,25,17,03,17.70
2009,08,25,17,04,17.60
2009,08,25,17,05,17.60
2009,08,25,17,06,17.60
2009,08,25,17,07,17.70
2009,08,25,17,08,17.70
2009,08,25,17,09,17.70
2009,08,25,17,10,17.80
2009,08,25,17,11,17.80
2009,08,25,17,12,17.70
2009,08,25,17,13,17.70
2009,08,25,17,14,17.70
2009,08,25,17,15,17.70
2009,08,25,17,16,17.70
2009,08,25,17,17,17.60
2009,08,25,17,18,17.60
2009,08,25,17,19,17.50